FDX021 LEMD-LEPA

Flight info

Callsign FDX021
Flight time N/A
Altitude 30000
Route NANDO T257 FENXE/N0493F320 T257 LASPO/N0480F260 M871 GODOX
Aircraft B744/H-SDE3FGHIM1M2RWXY/LB1

Departure

Time 2026-04-30 18:11
Airport Adolfo Suárez Madrid–Barajas Airport (LEMD)

Arrival

Time N/A
Airport Palma de Mallorca Airport (LEPA)
Time Latitude Longitude Altitude Speed Heading
2026-04-30 17:39 40.46044 -3.55825 1961 ft 0 kts 360°
2026-04-30 18:00 40.46101 -3.55857 1962 ft 9 kts 308°
2026-04-30 18:00 40.46114 -3.56383 1980 ft 26 kts 270°
2026-04-30 18:01 40.46279 -3.56504 1984 ft 21 kts
2026-04-30 18:02 40.46937 -3.56453 1988 ft 39 kts
2026-04-30 18:02 40.47457 -3.56817 1998 ft 22 kts 323°
2026-04-30 18:03 40.47801 -3.57169 2007 ft 26 kts 323°
2026-04-30 18:04 40.48394 -3.57769 2001 ft 39 kts 325°
2026-04-30 18:05 40.48762 -3.57474 1999 ft 30 kts 88°
2026-04-30 18:06 40.48771 -3.56205 1974 ft 25 kts 70°
2026-04-30 18:07 40.49275 -3.56139 1973 ft 15 kts 359°
2026-04-30 18:08 40.49813 -3.56145 1976 ft 27 kts
2026-04-30 18:09 40.49945 -3.56042 1969 ft 0 kts 69°
2026-04-30 18:10 40.50155 -3.55916 1974 ft 26 kts 358°
2026-04-30 18:11 40.55102 -3.55511 4368 ft 230 kts 17°
2026-04-30 18:11 40.59539 -3.53596 7535 ft 239 kts 32°
2026-04-30 18:12 40.63570 -3.49104 9933 ft 263 kts 40°
2026-04-30 18:13 40.66410 -3.45964 11478 ft 273 kts 41°
2026-04-30 18:13 40.67721 -3.39538 12802 ft 306 kts 113°
2026-04-30 18:14 40.64380 -3.34349 13899 ft 344 kts 139°
2026-04-30 18:15 40.59548 -3.26343 15561 ft 396 kts 124°
2026-04-30 18:15 40.54616 -3.17332 18193 ft 415 kts 128°
2026-04-30 18:16 40.51217 -3.11061 19773 ft 427 kts 127°
2026-04-30 18:16 40.47679 -3.04677 21263 ft 437 kts 128°
2026-04-30 18:17 40.45884 -3.01432 21983 ft 442 kts 128°
2026-04-30 18:17 40.44076 -2.98143 22700 ft 447 kts 128°
2026-04-30 18:17 40.40387 -2.91478 24027 ft 455 kts 128°
2026-04-30 18:18 40.38540 -2.88153 24587 ft 459 kts 128°
2026-04-30 18:18 40.36657 -2.84755 25147 ft 462 kts 128°
2026-04-30 18:18 40.34757 -2.81331 25699 ft 466 kts 128°
2026-04-30 18:18 40.32845 -2.77895 26248 ft 469 kts 128°
2026-04-30 18:19 40.30905 -2.74414 26804 ft 473 kts 128°
2026-04-30 18:19 40.28957 -2.70919 27357 ft 476 kts 128°
2026-04-30 18:19 40.26998 -2.67406 27896 ft 480 kts 129°
2026-04-30 18:19 40.25016 -2.63860 28428 ft 484 kts 129°